Weather History for Palacios, TX

Change the Weather History Date:

Friday, March 8, 2013

  Actual Average Record
Temperature  
Mean Temperature 66 °F -  
Max Temperature 75 °F 71 °F 80 °F (1951)
Min Temperature 57 °F 51 °F 30 °F (1956)
Cooling Degree Days 1    
Growing Degree Days 16 (Base 50)    
Moisture  
Dew Point 59 °F    
Average Humidity 75    
Maximum Humidity 90    
Minimum Humidity 61    
Precipitation  
Precipitation 0.00 in - - ()
Sea Level Pressure  
Sea Level Pressure 30.11 in    
Wind  
Wind Speed 11 mph (ESE)    
Max Wind Speed 22 mph    
Max Gust Speed 29 mph    
Visibility 10 miles    
Events      
Averages and records for this station are not official NWS values.
T = Trace of Precipitation, MM = Missing Value Source: NWS Daily Summary

Daily Weather History Graph

Daily Weather History Graph

Search for Another Location

Airport:

Trip Planner

Search our weather history database for the weather conditions in past years. The results will help you decide how hot, cold, wet, or windy it might be!

Date:

Astronomy

Mar. 08, 2013 Rise Set
Actual Time 6:42 AM CST 6:29 PM CST
Civil Twilight 6:18 AM CST 6:53 PM CST
Nautical Twilight 5:51 AM CST 7:20 PM CST
Astronomical Twilight 5:23 AM CST 7:47 PM CST
Moon 4:14 AM CST (3/8) 3:37 PM CST (3/8)
Length of Visible Light 12h 34m
Length of Day
11h 47m
Waning Crescent, 11% of the Moon is Illuminated
Mar 8
Waning Crescent
Mar 11
New
Mar 19
First Quarter
Mar 27
Full
Apr 2
Last Quarter

Hourly Weather History & Observations

Time (CST) Temp. Dew Point Humidity Pressure Visibility Wind Dir Wind Speed Gust Speed Precip Events Conditions
12:53 AM 57.9 °F 54.0 °F 87% 30.15 in 10.0 mi East 6.9 mph - N/A   Clear
1:53 AM 57.0 °F 54.0 °F 89% 30.15 in 10.0 mi East 4.6 mph - N/A   Clear
2:53 AM 60.1 °F 55.9 °F 86% 30.12 in 10.0 mi East 4.6 mph - N/A   Clear
3:53 AM 57.9 °F 55.0 °F 90% 30.11 in 10.0 mi East 5.8 mph - N/A   Clear
4:53 AM 61.0 °F 57.0 °F 87% 30.10 in 10.0 mi East 8.1 mph - N/A   Clear
5:53 AM 62.1 °F 57.9 °F 86% 30.11 in 10.0 mi East 9.2 mph - N/A   Mostly Cloudy
6:53 AM 63.0 °F 57.9 °F 84% 30.12 in 10.0 mi ESE 5.8 mph - N/A   Clear
7:53 AM 64.0 °F 60.1 °F 87% 30.15 in 10.0 mi East 5.8 mph - N/A   Overcast
8:53 AM 66.0 °F 61.0 °F 84% 30.16 in 10.0 mi East 8.1 mph - N/A   Overcast
9:53 AM 70.0 °F 62.1 °F 76% 30.17 in 10.0 mi ESE 11.5 mph - N/A   Overcast
10:53 AM 72.0 °F 61.0 °F 68% 30.17 in 10.0 mi ESE 15.0 mph - N/A   Overcast
11:53 AM 72.0 °F 61.0 °F 68% 30.16 in 10.0 mi ESE 13.8 mph - N/A   Mostly Cloudy
12:53 PM 73.9 °F 61.0 °F 64% 30.13 in 10.0 mi SE 17.3 mph 27.6 mph N/A   Overcast
1:53 PM 73.9 °F 60.1 °F 62% 30.09 in 10.0 mi ESE 20.7 mph 27.6 mph N/A   Mostly Cloudy
2:03 PM 75.2 °F 60.8 °F 61% 30.09 in 10.0 mi ESE 19.6 mph 28.8 mph N/A   Mostly Cloudy
2:38 PM 73.4 °F 59.0 °F 61% 30.08 in 10.0 mi ESE 20.7 mph 26.5 mph N/A   Scattered Clouds
2:48 PM 73.4 °F 59.0 °F 61% 30.08 in 10.0 mi ESE 21.9 mph 27.6 mph N/A   Mostly Cloudy
2:53 PM 73.0 °F 59.0 °F 61% 30.08 in 10.0 mi ESE 19.6 mph 27.6 mph N/A   Mostly Cloudy
3:39 PM 71.6 °F 59.0 °F 64% 30.09 in 10.0 mi ESE 17.3 mph - N/A   Scattered Clouds
3:49 PM 71.6 °F 59.0 °F 64% 30.09 in 10.0 mi ESE 17.3 mph 25.3 mph N/A   Mostly Cloudy
3:53 PM 72.0 °F 59.0 °F 64% 30.09 in 10.0 mi ESE 18.4 mph 25.3 mph N/A   Mostly Cloudy
4:25 PM 71.6 °F 59.0 °F 64% 30.09 in 10.0 mi ESE 15.0 mph - N/A   Scattered Clouds
5:53 PM 68.0 °F 59.0 °F 73% 30.11 in 10.0 mi East 12.7 mph - N/A   Clear
6:53 PM 66.9 °F 59.0 °F 76% 30.09 in 10.0 mi East 13.8 mph - N/A   Clear
7:53 PM 66.0 °F 59.0 °F 78% 30.08 in 10.0 mi ESE 16.1 mph - N/A   Clear
8:53 PM 66.9 °F 60.1 °F 79% 30.07 in 10.0 mi ESE 13.8 mph - N/A   Clear
9:53 PM 68.0 °F 60.1 °F 76% 30.07 in 10.0 mi ESE 13.8 mph - N/A   Clear
10:53 PM 66.9 °F 61.0 °F 81% 30.07 in 10.0 mi SE 10.4 mph - N/A   Clear
11:53 PM 66.9 °F 61.0 °F 81% 30.06 in 10.0 mi SE 9.2 mph - N/A   Scattered Clouds